This is the latest recevied weather packets stored in our database for station/object AI5KP-13. If no packets are shown the sender has not sent any weather packets the latest 10 day(s).
| Time | Temp. | Humidity | Pressure | Rain* | Wind** | Luminosity | Snow |
|---|---|---|---|---|---|---|---|
| 1777835833 | 23.89° C | 50% | 1015.4 hPa | 0 mm | - | 687 W/m² | - |
| 1777835530 | 23.89° C | 48% | 1015.7 hPa | 0 mm | - | 693 W/m² | - |
| 1777835227 | 24.44° C | 49% | 1015.6 hPa | 0 mm | - | 698 W/m² | - |
| 1777834924 | 23.89° C | 48% | 1015.7 hPa | 0 mm | - | 703 W/m² | - |
| 1777834621 | 23.89° C | 49% | 1015.8 hPa | 0 mm | - | 708 W/m² | - |
| 1777834316 | 23.33° C | 49% | 1015.9 hPa | 0 mm | - | 713 W/m² | - |
| 1777834011 | 23.33° C | 50% | 1015.8 hPa | 0 mm | - | 717 W/m² | - |
| 1777833708 | 23.33° C | 50% | 1015.7 hPa | 0 mm | - | 721 W/m² | - |
| 1777833404 | 23.33° C | 50% | 1015.9 hPa | 0 mm | - | 724 W/m² | - |
| 1777833102 | 23.33° C | 50% | 1016 hPa | 0 mm | - | 727 W/m² | - |
| 1777832800 | 23.33° C | 48% | 1016 hPa | 0 mm | - | 730 W/m² | - |
| 1777832498 | 22.78° C | 49% | 1016.3 hPa | 0 mm | - | 733 W/m² | - |
| 1777832194 | 22.78° C | 49% | 1016.3 hPa | 0 mm | - | 735 W/m² | - |
| 1777831891 | 22.78° C | 49% | 1016.3 hPa | 0 mm | - | 737 W/m² | - |
| 1777831588 | 23.33° C | 50% | 1016.5 hPa | 0 mm | - | 738 W/m² | - |
| 1777831286 | 22.78° C | 50% | 1016.5 hPa | 0 mm | - | 740 W/m² | - |
| 1777830983 | 22.22° C | 47% | 1016.6 hPa | 0 mm | - | 740 W/m² | - |
| 1777830680 | 22.78° C | 48% | 1016.6 hPa | 0 mm | - | 740 W/m² | - |
| 1777830376 | 22.22° C | 48% | 1016.8 hPa | 0 mm | - | 740 W/m² | - |
| 1777830074 | 22.22° C | 51% | 1016.8 hPa | 0 mm | - | 740 W/m² | - |
| 1777829769 | 22.78° C | 50% | 1016.8 hPa | 0 mm | - | 739 W/m² | - |
| 1777829465 | 22.22° C | 47% | 1016.9 hPa | 0 mm | - | 737 W/m² | - |
| 1777829162 | 21.67° C | 47% | 1017.1 hPa | 0 mm | - | 735 W/m² | - |
| 1777828860 | 22.22° C | 49% | 1017.1 hPa | 0 mm | - | 732 W/m² | - |
| 1777828556 | 21.67° C | 52% | 1017.2 hPa | 0 mm | - | 730 W/m² | - |
* Rain latest hour (hover to see other rain measurements)
** Current wind speed in m/s (hover to see current wind gust speed)